sat.trackr.live / text

‹ back to catalog

PIESAT-2 12

NORAD 62336 · 2024-241D

PAYLOAD ACTIVE UNKNOWN

§ Identity

Operator
Country
PRC
Launch date
2024-12-16
Launch site
TAISC
Launch vehicle
Mass (kg)
RCS (m²)

External: N2YO · Heavens-Above · Gunter

§ Orbital elements

Epoch: 2026-05-25T04:53:55.186944Z

Period
95.11 min
Inclination
97.5243°
Eccentricity
0.0002316
Mean motion
15.14088163 rev/d
Perigee alt
522.1 km
Apogee alt
525.3 km
Semi-major
6,901.9 km
B*
4.7627e-4
RAAN
92.9510°
Arg perigee
85.7026°
Mean anomaly
274.4470°
Rev number
7,932

§ Raw data

PIESAT-2 121 62336U 24241D   26145.20411096  .00008606  00000+0  47627-3 0  99922 62336  97.5243  92.9510 0002316  85.7026 274.4470 15.14088163 79324

JSON: /api/v1/satellites/62336 · /tle

For live sub-satellite position, see the globe view (requires WebGL).

§ Visibility from observer

Set your observer location to see the next 7 days of passes ≥ 10°. The values pass through the URL so the page stays shareable.

No JS? Fill the form by hand. The geolocation button needs JavaScript.